Theta_e
321 321 321 314 309 317 308 311 307 311 315 320 323 323 325 326 327 328 328 329 332 337 342 349 350 353 355 360 361 363 359 364
320 322 322 320 323 313 314 304 302 309 311 311 319 321 323 324 326 327 328 331 334 337 340 348 349 353 355 361 360 362 361 361
318 316 316 318 317 316 315 312 306 305 309 322 324 323 323 326 328 328 329 331 336 340 343 343 350 352 356 358 359 360 360 359
313 320 323 321 318 318 311 309 312 310 309 321 321 323 326 326 327 331 336 336 337 341 345 347 350 348 352 355 354 358 361 365
311 316 321 318 319 317 315 315 310 306 309 322 323 323 326 326 331 336 337 340 341 342 349 351 351 356 351 353 356 355 362 364
309 312 318 315 315 319 314 310 311 313 313 318 321 322 325 328 332 335 340 345 343 346 353 359 364 366 367 364 363 364 366 359
316 317 316 315 314 316 315 316 310 312 314 318 322 325 328 332 335 338 342 343 350 350 357 360 364 366 368 366 369 368 371 369
314 316 316 314 316 316 316 315 315 316 317 324 329 331 332 336 340 343 344 345 348 350 353 356 360 364 365 367 368 370 368 361
312 315 314 309 315 315 315 316 315 314 323 328 327 332 338 340 341 341 342 344 345 348 351 356 357 361 358 361 363 359 352 350
312 316 304 314 319 319 316 317 318 326 329 332 334 337 339 341 341 342 343 344 347 348 351 351 352 352 351 353 355 352 348 348
310 309 313 315 317 317 315 316 319 324 331 333 337 339 339 343 344 343 343 343 344 347 348 350 351 351 348 346 345 346 346 347
313 308 305 316 321 324 322 312 323 324 332 333 335 327 334 342 343 342 343 344 344 345 345 345 347 347 348 345 344 344 346 346
311 309 312 320 324 325 312 315 327 328 332 333 336 340 342 344 343 344 344 344 345 345 343 344 347 350 346 344 342 345 345 348
314 311 307 324 323 318 327 326 329 332 336 343 342 341 341 342 341 342 343 344 343 342 345 349 350 348 343 343 346 350 348 348
313 313 335 331 328 328 328 333 333 335 342 343 340 339 341 339 340 340 341 343 342 340 343 345 347 347 342 346 348 347 348 345
320 322 325 328 329 328 333 332 334 335 339 340 339 340 339 338 337 337 338 338 340 341 339 343 346 345 345 347 351 348 346 343
321 327 329 327 328 328 331 333 332 337 338 342 341 340 339 339 339 338 339 341 341 338 338 340 342 344 343 347 346 340 341 341
317 331 343 337 335 331 332 333 337 338 337 344 345 343 342 340 342 342 341 340 339 338 339 339 341 340 345 346 344 341 337 336
325 335 332 330 331 332 336 337 338 338 346 345 344 342 341 342 346 335 341 342 340 341 341 341 340 339 341 346 345 345 341 339
Wind_Speed
17 12 12 10 7 30 21 24 7 15 21 15 14 14 10 15 12 10 12 10 12 9 10 11 11 11 10 15 14 14 15 10
16 14 5 8 5 8 6 7 3 15 13 11 13 12 13 9 13 16 12 11 9 10 11 12 11 12 11 13 14 14 13 13
14 10 13 7 11 3 5 5 7 13 11 10 12 13 11 11 12 15 12 10 8 9 9 10 10 13 11 11 12 11 12 11
15 13 16 12 13 16 2 4 7 14 11 14 10 8 12 10 10 11 11 11 9 8 8 9 8 10 11 9 11 11 10 9
15 14 14 7 5 15 10 5 10 8 10 14 12 9 5 13 11 4 7 7 11 10 7 6 8 5 10 11 8 10 10 11
12 16 14 12 10 17 11 5 6 19 18 17 15 13 10 9 7 8 3 7 4 12 11 10 10 10 8 5 1 7 5 10
22 15 14 14 15 11 22 18 9 13 19 18 13 13 13 11 10 10 11 13 15 14 11 9 8 5 4 4 6 7 4 3
26 8 2 15 11 10 5 3 8 15 20 18 14 14 16 14 14 14 14 13 14 12 10 10 9 6 6 9 10 11 13 14
11 10 6 5 7 12 9 5 0 7 20 17 14 15 18 16 14 13 13 13 12 11 10 10 10 10 12 10 11 12 10 12
9 14 10 7 9 5 6 10 4 17 16 17 15 16 18 16 14 13 13 11 11 10 11 11 10 12 10 10 10 10 11 10
8 9 9 13 13 14 10 10 3 13 21 19 19 17 15 15 14 13 12 11 11 12 12 10 10 9 8 10 9 9 8 8
8 11 13 12 11 1 6 6 11 10 18 20 18 12 11 14 14 14 14 12 12 13 12 11 10 9 9 9 8 8 7 5
12 10 11 6 17 15 13 6 15 15 17 17 6 13 17 16 15 15 14 13 13 13 11 7 5 7 10 8 7 5 4 5
12 10 12 1 12 18 6 1 12 16 15 21 20 19 18 16 16 15 16 14 13 10 8 7 7 9 6 6 5 4 5 6
7 9 9 11 12 11 9 9 12 15 22 20 21 18 16 14 14 13 13 12 12 11 9 8 7 8 6 4 3 2 5 7
11 11 12 15 12 10 15 14 12 16 21 21 20 18 17 15 13 12 12 11 10 12 9 10 8 7 5 4 5 5 5 7
13 9 12 13 15 12 16 16 15 15 18 20 19 18 16 14 13 12 10 10 11 10 8 9 7 6 5 6 4 7 5 3
5 7 3 9 12 12 15 16 16 16 16 19 18 16 15 13 11 11 12 11 10 10 9 6 6 5 5 5 2 4 6 3
6 2 12 10 14 14 13 15 18 16 17 19 18 16 16 13 11 13 11 11 10 9 8 7 6 4 4 3 4 5 3 7
Wind_Direction
215 202 250 128 70 230 225 260 175 102 105 112 124 137 158 125 145 120 77 91 120 142 151 150 156 162 172 162 172 189 194 208
196 209 217 304 262 294 206 93 172 121 134 125 156 152 129 157 129 125 133 130 140 152 159 155 173 162 175 164 178 191 206 196
181 193 219 181 226 206 212 15 278 139 108 112 135 146 162 152 140 126 131 125 150 148 148 156 167 165 173 172 181 196 205 200
196 192 244 258 301 207 151 326 292 102 116 131 144 102 96 97 92 93 121 129 128 121 144 146 164 176 173 187 193 199 200 213
182 194 215 241 84 99 72 51 281 115 126 105 95 97 66 85 86 90 110 128 131 127 93 138 152 187 172 180 219 202 194 190
188 209 172 194 253 125 112 263 253 122 136 139 132 125 111 96 105 103 61 92 52 99 76 58 42 28 22 4 225 207 202 201
300 180 186 175 216 191 170 173 42 134 149 141 134 111 104 97 97 102 78 77 58 55 60 55 63 29 33 350 350 345 0 303
256 270 144 173 172 189 222 1 99 121 114 113 118 130 112 101 89 79 75 74 71 63 65 60 41 44 42 31 28 27 39 38
203 221 197 229 189 169 182 114 44 57 114 116 126 117 108 106 104 100 93 87 80 71 65 43 50 35 49 42 44 52 45 45
220 212 188 204 240 202 185 151 176 119 116 108 105 109 105 107 112 111 106 98 88 81 67 60 59 62 51 56 60 58 51 46
228 236 207 202 212 200 209 133 104 109 114 118 103 101 95 105 110 110 107 103 95 90 84 74 65 67 72 64 56 59 55 43
233 233 233 198 160 99 134 213 159 149 129 133 153 140 126 125 113 98 98 95 93 89 84 79 72 67 69 62 59 53 46 41
197 237 252 216 174 180 211 205 156 150 141 158 110 110 124 116 112 115 107 95 87 91 93 81 86 79 65 61 73 91 71 54
209 196 235 125 174 166 139 339 164 133 130 108 115 121 125 127 129 125 123 116 103 103 92 75 81 79 77 74 42 82 66 59
229 215 128 129 135 150 165 142 131 137 121 127 123 126 122 120 121 117 115 113 114 111 106 96 79 71 76 78 112 77 83 83
236 227 206 157 151 169 130 135 147 143 130 129 131 134 130 124 123 124 122 118 117 95 99 79 71 83 71 54 67 107 95 115
226 213 146 165 152 156 142 147 159 138 135 136 138 138 137 127 122 123 121 111 98 105 105 102 81 38 65 109 100 82 71 64
177 119 323 166 144 157 154 151 140 136 140 131 131 127 125 127 123 126 110 117 112 122 116 123 110 106 94 70 140 149 160 111
187 136 183 174 169 174 145 143 133 138 120 120 122 130 130 127 115 109 135 133 134 124 115 105 91 95 67 65 49 6 27 78